Regional Weather Roundup
Issued by NWS

Home | Current Version | Previous Version | Graphics & Text | Print | Product List | Glossary On
Versions: 1 2 3 4 5 6 7 8 9 10 11 12 13 14 15 16 17 18 19 20 21 22 23 24 25 26 27 28 29 30 31 32 33 34 35 36 37 38 39 40 41 42 43 44 45 46 47 48 49 50
000
ASUS45 KBOI 220610
RWRID
WEATHER ROUNDUP FOR IDAHO
NATIONAL WEATHER SERVICE BOISE ID
1100 PM MST FRI NOV 21 2014

NOTE: "FAIR" INDICATES FEW OR NO CLOUDS BELOW 12000 FEET
WITH NO SIGNIFICANT WEATHER AND/OR OBSTRUCTIONS TO VISIBILITY

IDZ012-014-220700-
SOUTHWEST IDAHO


CITY           SKY/WX    TMP DP  RH WIND       PRES   REMARKS
BOISE          CLOUDY    40  35  83 SE13      29.83F WCI  32
CALDWELL       NOT AVBL
MOUNTAIN HOME  CLOUDY    37  37 100 E14       29.82F WCI  28
$$

IDZ016-017-220700-
SOUTHCENTRAL IDAHO


CITY           SKY/WX    TMP DP  RH WIND       PRES   REMARKS
BURLEY         CLOUDY    42  28  57 SW10      29.89F
JEROME         CLOUDY    38  30  73 CALM      29.91S
TWIN FALLS     CLOUDY    43  31  62 S9        29.90F
$$

IDZ019>023-220700-
SOUTHEAST IDAHO


CITY           SKY/WX    TMP DP  RH WIND       PRES   REMARKS
IDAHO FALLS    CLOUDY    33  27  78 SW7       29.90S WCI  27
POCATELLO      CLOUDY    43  27  53 S16       29.91R
REXBURG        CLOUDY    35  25  66 S9        29.89S WCI  28
$$

IDZ006-010-011-018-031-032-220700-
CENTRAL IDAHO MOUNTAINS


CITY           SKY/WX    TMP DP  RH WIND       PRES   REMARKS
MCCALL         LGT SNOW  33  32  96 S13       29.74F FOG     WCI  24
HAILEY         LGT SNOW  32  32 100 CALM      29.91F
STANLEY          N/A     35  29  78 SE15G26   29.79F WCI  25
SALMON         CLOUDY    27  21  80 N6        29.76F WCI  20
CHALLIS        CLOUDY    26  23  88 CALM      29.77F
$$

IDZ002-004-006-007-026-220700-
NORTHERN IDAHO


CITY           SKY/WX    TMP DP  RH WIND       PRES   REMARKS
LEWISTON       CLOUDY    42  39  89 E3        29.50F
LOWELL           N/A     35  34  96 CALM      29.61F
COEUR D`ALENE  CLOUDY    39  36  87 SE6       29.41F WCI  35
MULLAN PASS    SNOW      31  28  89 S10G25    29.42F VSB 1/4 WCI  22
$$


USA.gov is the U.S. government's official web portal to all federal, state and local government web resources and services.